Wind_Speed
30 30 30 30 31 32 32 32 32 31 31 32 31 31 30 30 30 31 31 32 32 32 32 32 32 32 33 33 33 33 34 34 34 34 35 35 36 37 37 37 37 38 40 40
30 31 31 31 32 32 32 32 32 32 32 32 32 32 31 31 31 31 32 32 32 32 33 33 33 33 33 34 34 35 35 35 35 35 36 36 36 37 37 38 39 39 40 40
32 31 31 32 32 32 32 32 33 33 33 32 33 33 31 31 31 31 31 32 32 33 33 34 34 34 34 34 35 35 35 35 35 36 36 36 36 36 38 38 38 40 40 40
32 31 31 32 32 32 32 32 33 33 33 33 33 34 31 30 31 30 31 31 32 33 33 34 34 34 34 35 35 35 35 35 36 36 37 37 37 36 37 38 39 40 40 40
32 31 31 32 32 32 32 32 32 32 33 34 33 34 31 30 31 31 31 32 32 33 33 33 34 34 35 34 35 35 35 35 36 37 38 38 38 38 38 39 39 39 40 40
33 32 32 31 31 32 32 32 32 33 33 34 32 34 32 30 31 31 32 32 33 33 33 33 34 34 35 35 35 36 36 36 36 37 38 38 39 39 39 39 40 40 40 40
33 32 31 31 31 31 32 32 32 32 33 34 31 33 33 31 31 32 32 33 33 33 33 33 33 34 34 34 35 36 36 37 37 38 38 38 39 39 39 40 40 40 40 40
33 32 30 30 31 31 31 32 32 33 33 33 32 32 31 31 31 31 32 33 33 33 33 33 32 33 34 34 35 35 36 37 37 37 38 38 39 40 40 41 41 41 42 42
33 32 31 31 31 31 31 32 32 33 34 34 34 32 31 31 31 31 31 33 33 32 32 32 33 33 33 34 34 35 36 37 37 37 38 38 38 40 40 41 41 42 43 43
32 33 31 31 31 31 31 31 31 31 32 33 33 32 32 30 31 31 31 32 32 31 32 32 32 32 32 33 34 35 36 37 37 36 37 37 38 39 39 40 41 43 43 43
33 34 33 32 31 31 30 30 31 32 33 32 33 32 31 30 31 31 31 31 31 31 32 32 32 31 31 32 33 34 35 35 35 35 36 36 38 39 39 40 42 43 43 44
33 34 34 33 32 31 31 31 31 32 32 32 33 33 31 31 31 31 30 30 30 31 31 31 31 31 31 32 32 33 34 34 35 35 36 37 38 40 41 42 43 43 44 44
34 34 34 34 33 32 32 31 32 32 32 32 33 32 32 32 32 32 31 30 30 30 31 31 31 30 31 31 32 32 33 34 35 36 37 38 39 41 42 42 43 43 44 44
34 34 33 33 34 33 32 32 31 31 32 33 32 32 31 32 32 31 31 31 31 31 31 30 30 30 30 31 31 31 31 32 33 35 37 37 38 40 42 42 43 43 43 43
34 35 34 33 33 34 33 33 32 32 32 32 31 31 30 31 31 31 31 31 31 31 30 30 30 30 30 30 31 30 31 32 33 34 35 36 38 38 39 39 40 41 41 41
34 35 34 34 33 33 33 33 34 33 32 32 32 31 30 31 31 31 32 31 31 30 30 30 30 30 31 31 31 31 31 32 33 33 33 34 35 36 37 37 38 38 38 39
34 34 34 33 33 33 32 31 32 33 32 32 32 30 30 30 30 31 31 31 31 31 31 31 31 31 31 31 31 31 32 32 33 32 32 33 34 34 34 35 35 35 36 36
32 33 34 34 33 34 32 31 31 31 32 31 31 31 30 30 30 31 31 32 31 31 31 31 31 31 31 31 31 31 31 31 32 32 33 34 34 34 35 35 35 34 33 33
32 33 33 33 34 33 31 31 30 30 30 30 30 30 30 30 30 31 31 31 31 31 31 30 30 30 30 30 31 31 31 31 31 32 33 33 33 33 33 33 32 31 31 31
31 31 32 31 32 31 30 29 29 30 30 29 29 29 30 30 30 31 31 31 31 30 29 29 29 30 30 30 30 30 31 31 31 31 32 32 32 32 32 31 31 31 31 31
30 30 30 30 30 30 29 28 29 30 30 28 28 28 29 30 30 30 29 29 29 28 28 28 29 29 30 30 30 30 30 30 30 31 31 31 31 31 31 31 30 30 30 30
29 30 30 30 30 30 29 28 28 28 28 28 29 29 29 30 29 29 28 28 27 27 27 27 28 28 29 29 29 29 29 29 29 30 30 30 29 29 29 29 29 29 28 28
30 29 30 30 30 30 29 29 28 28 29 29 30 30 30 29 29 28 28 28 28 28 27 27 27 28 28 28 27 27 27 28 28 28 28 28 27 27 28 29 29 28 28 27
30 30 31 31 30 30 31 31 30 30 30 30 30 30 30 29 29 28 28 28 27 27 27 27 27 27 27 26 26 26 26 26 27 27 27 27 27 28 29 29 28 28 28 27
27 29 31 31 30 31 31 32 32 31 31 31 30 30 29 29 28 28 28 28 27 27 27 27 26 26 26 26 27 26 26 27 27 27 27 27 27 28 28 27 28 28 27 27
25 28 29 30 29 30 30 31 31 31 31 30 29 29 29 29 29 28 28 28 28 27 26 26 26 25 25 26 26 27 27 27 27 28 28 27 27 26 26 26 26 26 26 26
Wind_Direction
274 273 274 274 273 273 273 271 271 271 269 268 267 266 265 266 267 268 269 269 269 269 269 268 268 268 267 266 265 263 262 261 260 261 261 261 261 261 260 260 262 263 263 263
275 274 275 273 272 271 271 271 270 269 270 269 268 266 266 268 269 270 270 270 270 269 269 268 268 268 267 267 266 264 263 262 262 262 262 262 262 261 261 262 262 263 266 265
276 277 274 272 270 269 269 269 269 268 269 270 270 268 267 268 270 271 271 271 271 270 270 269 268 267 267 267 266 264 263 263 263 262 262 262 263 263 262 262 265 266 266 265
276 274 273 272 270 269 268 268 268 268 269 270 270 271 268 269 270 271 272 272 272 271 271 270 269 268 267 267 267 265 263 262 263 262 262 263 263 263 263 264 266 266 267 267
276 275 273 271 269 268 268 268 268 269 270 270 270 272 270 269 271 272 273 273 273 272 271 270 270 269 268 268 266 265 263 263 263 263 262 263 264 264 265 266 266 266 267 268
276 275 272 270 269 267 268 267 268 268 269 269 271 272 272 271 274 274 274 274 274 274 273 271 271 270 270 268 266 265 264 264 265 264 264 264 265 266 267 266 266 267 268 269
275 273 271 269 268 267 265 265 266 268 268 270 271 271 273 274 275 275 277 275 275 274 274 274 272 271 271 269 267 266 265 265 265 265 265 265 266 266 266 266 267 268 269 271
275 272 270 268 269 269 266 264 265 267 270 270 270 271 273 275 277 277 277 275 275 274 274 274 274 274 272 269 268 268 266 265 266 266 266 267 266 265 266 267 268 269 270 272
273 271 270 269 269 268 267 265 265 267 268 269 268 268 272 275 277 277 276 275 275 275 276 275 276 276 274 272 270 269 268 267 267 267 266 267 266 266 267 268 269 270 271 271
270 269 269 269 268 267 267 268 265 264 268 269 269 269 273 276 277 278 277 274 273 274 276 276 276 276 275 273 272 271 269 268 267 267 267 267 267 267 268 269 269 271 272 271
268 268 268 268 267 266 265 264 263 263 264 267 269 270 275 278 278 278 278 275 273 274 276 276 276 276 277 275 273 271 270 268 267 268 268 270 270 268 270 271 272 272 272 272
267 268 268 267 266 266 265 263 263 264 266 267 269 270 274 277 278 279 279 277 276 276 278 277 277 277 277 277 275 273 270 269 267 269 270 271 271 271 271 273 274 274 273 272
267 268 269 267 264 263 263 264 264 264 265 266 268 272 275 276 278 278 278 278 278 278 278 277 277 277 277 277 276 274 272 271 269 270 271 272 272 272 273 275 275 275 275 274
265 265 266 268 268 265 264 264 264 265 265 266 268 272 273 275 276 277 277 277 277 277 277 277 278 277 277 278 277 275 274 274 273 273 275 274 276 276 275 275 275 275 275 275
263 263 264 265 265 264 263 262 262 264 266 267 269 270 272 274 275 276 277 278 278 278 278 278 278 278 278 279 278 277 277 277 277 277 277 277 279 278 277 276 276 277 276 275
263 262 263 263 263 263 262 262 263 263 265 267 267 268 270 273 274 275 276 278 279 278 279 279 279 278 278 278 279 277 277 277 279 279 279 280 281 280 278 278 278 278 277 276
261 261 262 262 264 264 263 264 265 265 265 267 266 267 269 271 274 275 277 279 280 278 279 278 279 279 279 280 280 278 279 280 281 281 281 281 281 282 281 280 280 280 279 278
260 258 261 264 264 263 265 265 265 265 264 266 268 267 269 272 274 276 277 279 280 280 279 279 279 278 280 281 281 281 282 283 282 283 283 282 282 283 283 282 282 282 282 280
259 259 262 264 265 266 265 265 265 265 263 265 267 269 269 272 275 277 279 280 282 281 280 278 279 279 281 283 283 281 282 282 283 283 284 284 284 283 283 283 283 282 282 282
260 259 260 263 265 267 267 266 266 265 263 264 267 269 270 272 275 277 279 280 281 279 279 278 279 280 282 284 285 282 281 280 281 282 284 285 285 284 284 282 281 282 283 283
259 258 259 260 263 266 266 266 266 265 266 266 267 269 271 272 274 277 279 280 280 278 279 279 280 281 283 284 284 282 281 280 281 282 283 285 285 284 283 282 282 283 283 283
259 259 258 260 263 266 264 266 267 268 266 267 269 270 272 272 274 278 280 281 280 278 278 278 280 282 283 283 282 281 281 282 283 284 285 285 285 284 284 284 284 284 283 283
257 258 259 261 263 264 264 266 267 267 267 268 271 272 272 273 274 277 279 280 280 279 278 279 280 281 282 282 282 282 282 282 284 285 285 284 284 284 284 285 284 283 283 283
256 256 258 259 260 262 263 264 267 267 268 270 273 273 272 273 274 275 278 280 281 280 279 280 281 281 281 281 281 282 282 283 284 285 285 285 285 285 286 285 284 283 283 282
259 257 258 259 261 262 262 263 266 267 269 271 273 273 272 271 273 274 276 278 279 279 280 279 280 279 280 281 281 282 282 283 285 286 287 287 286 287 286 285 283 282 282 281
261 260 260 261 262 263 262 262 264 266 267 269 271 271 270 270 272 273 275 276 277 277 278 278 278 278 279 280 281 282 282 283 284 286 287 287 287 286 286 286 284 282 281 281
Height
5705 5706 5705 5706 5705 5704 5703 5702 5702 5703 5702 5703 5703 5704 5705 5705 5706 5706 5706 5706 5707 5707 5708 5708 5708 5708 5708 5709 5709 5710 5711 5712 5713 5714 5715 5716 5718 5719 5720 5722 5723 5724 5725 5726
5698 5698 5699 5697 5696 5696 5695 5694 5695 5695 5695 5695 5695 5696 5697 5698 5698 5698 5698 5698 5699 5699 5699 5699 5699 5699 5700 5700 5700 5701 5702 5703 5704 5705 5706 5708 5709 5710 5711 5713 5714 5714 5715 5716
5689 5691 5690 5688 5688 5687 5687 5687 5687 5687 5687 5687 5687 5688 5690 5690 5690 5690 5690 5690 5690 5690 5690 5690 5691 5691 5691 5691 5692 5692 5693 5694 5695 5696 5697 5698 5700 5701 5702 5704 5704 5705 5705 5705
5681 5682 5681 5680 5679 5679 5679 5680 5679 5679 5679 5679 5679 5677 5682 5682 5682 5682 5682 5682 5682 5681 5681 5681 5681 5682 5682 5683 5683 5683 5684 5685 5686 5687 5688 5689 5691 5692 5693 5695 5695 5695 5695 5695
5672 5673 5672 5672 5672 5671 5671 5672 5672 5671 5670 5670 5671 5669 5673 5674 5674 5675 5674 5674 5673 5673 5673 5672 5672 5673 5673 5673 5673 5674 5675 5676 5677 5678 5679 5680 5682 5683 5684 5685 5686 5686 5686 5686
5664 5664 5663 5663 5663 5663 5663 5663 5663 5662 5661 5662 5664 5662 5664 5666 5666 5666 5666 5666 5665 5664 5664 5664 5664 5664 5664 5664 5664 5665 5666 5667 5668 5669 5670 5671 5672 5673 5674 5675 5676 5676 5676 5676
5655 5655 5655 5655 5655 5655 5655 5655 5654 5653 5653 5654 5656 5654 5657 5658 5658 5658 5658 5657 5656 5655 5655 5655 5655 5655 5655 5655 5656 5656 5657 5658 5659 5660 5661 5662 5663 5664 5665 5665 5666 5666 5666 5666
5646 5647 5647 5647 5647 5647 5647 5647 5647 5646 5645 5646 5647 5647 5650 5651 5650 5649 5649 5648 5647 5647 5647 5647 5646 5646 5646 5646 5647 5647 5648 5649 5649 5650 5651 5652 5653 5654 5654 5655 5656 5656 5656 5656
5637 5638 5639 5639 5639 5639 5639 5638 5639 5639 5638 5638 5638 5640 5642 5642 5642 5641 5640 5640 5639 5639 5639 5638 5637 5637 5637 5637 5637 5638 5638 5639 5639 5640 5642 5642 5643 5644 5644 5645 5645 5645 5645 5645
5629 5629 5631 5631 5630 5630 5631 5631 5631 5631 5629 5629 5631 5632 5634 5634 5634 5633 5632 5631 5631 5631 5630 5630 5629 5628 5628 5628 5628 5628 5628 5629 5630 5631 5632 5632 5633 5634 5634 5634 5634 5634 5633 5633
5620 5620 5622 5622 5622 5623 5623 5623 5623 5623 5623 5623 5623 5627 5627 5626 5626 5625 5624 5623 5623 5623 5622 5622 5621 5620 5619 5619 5619 5619 5619 5619 5620 5621 5621 5622 5623 5623 5623 5623 5623 5622 5622 5621
5611 5611 5611 5613 5614 5614 5615 5615 5615 5616 5616 5615 5615 5621 5619 5619 5618 5617 5616 5616 5616 5615 5615 5614 5613 5612 5611 5611 5610 5610 5610 5610 5611 5611 5612 5612 5612 5612 5612 5612 5612 5611 5610 5609
5602 5602 5602 5603 5606 5606 5606 5607 5607 5608 5608 5607 5608 5613 5612 5611 5610 5609 5609 5608 5608 5608 5607 5606 5605 5604 5603 5602 5602 5601 5601 5601 5601 5601 5602 5602 5602 5601 5601 5601 5600 5599 5598 5597
5592 5592 5594 5596 5596 5597 5598 5599 5599 5599 5599 5600 5601 5603 5604 5603 5602 5601 5601 5601 5600 5600 5599 5598 5597 5596 5595 5594 5593 5593 5592 5592 5592 5592 5592 5591 5591 5591 5590 5589 5588 5587 5586 5585
5581 5583 5585 5586 5587 5587 5588 5590 5590 5591 5592 5592 5594 5595 5596 5594 5593 5593 5593 5592 5592 5592 5591 5590 5589 5588 5587 5586 5585 5585 5584 5584 5584 5583 5582 5581 5580 5580 5579 5577 5576 5575 5574 5573
5573 5574 5575 5577 5578 5578 5579 5581 5581 5582 5583 5584 5585 5587 5588 5586 5585 5585 5585 5584 5584 5584 5583 5582 5581 5580 5579 5578 5577 5577 5576 5575 5575 5574 5573 5571 5570 5569 5568 5567 5565 5564 5563 5562
5564 5565 5566 5568 5569 5568 5570 5574 5574 5574 5576 5576 5577 5580 5579 5578 5578 5578 5577 5577 5576 5575 5574 5573 5572 5571 5570 5570 5569 5568 5567 5567 5566 5565 5563 5562 5561 5560 5558 5557 5555 5554 5553 5551
5555 5556 5557 5559 5560 5559 5566 5565 5565 5566 5567 5568 5568 5570 5570 5570 5570 5570 5569 5569 5568 5567 5566 5565 5564 5563 5562 5561 5560 5559 5559 5558 5557 5555 5554 5553 5552 5550 5549 5547 5545 5544 5543 5542
5548 5549 5549 5550 5550 5551 5556 5557 5557 5558 5559 5560 5560 5561 5562 5562 5562 5562 5561 5560 5559 5558 5557 5557 5556 5555 5554 5553 5552 5551 5550 5549 5548 5547 5546 5544 5543 5541 5539 5538 5536 5535 5534 5533
5540 5541 5542 5542 5542 5544 5549 5550 5549 5550 5550 5552 5553 5553 5553 5553 5554 5555 5553 5552 5551 5550 5549 5548 5548 5547 5546 5545 5543 5543 5541 5540 5539 5538 5537 5535 5534 5532 5531 5529 5528 5526 5525 5524
5532 5532 5534 5535 5534 5536 5540 5541 5542 5543 5544 5544 5544 5545 5545 5545 5546 5546 5544 5543 5543 5542 5541 5540 5539 5538 5537 5536 5535 5534 5533 5532 5531 5530 5528 5527 5525 5524 5522 5521 5519 5518 5517 5516
5523 5524 5526 5527 5527 5532 5532 5533 5534 5535 5535 5535 5536 5536 5537 5537 5537 5537 5536 5535 5534 5534 5533 5532 5532 5530 5529 5528 5527 5526 5525 5524 5523 5521 5520 5518 5517 5515 5514 5512 5511 5510 5508 5507
5515 5518 5518 5520 5522 5523 5523 5524 5525 5526 5527 5527 5528 5528 5528 5528 5528 5528 5528 5527 5527 5526 5525 5524 5524 5523 5522 5520 5519 5518 5517 5516 5515 5513 5511 5510 5509 5507 5506 5504 5503 5501 5500 5499
5507 5508 5509 5510 5513 5514 5514 5515 5517 5518 5518 5519 5519 5520 5520 5520 5520 5520 5520 5519 5519 5518 5517 5517 5516 5515 5514 5513 5512 5511 5510 5508 5507 5505 5504 5502 5501 5499 5498 5496 5495 5493 5492 5491
5499 5499 5500 5501 5504 5505 5506 5507 5508 5509 5510 5510 5511 5511 5511 5511 5511 5511 5511 5511 5511 5510 5510 5509 5508 5507 5506 5505 5504 5503 5502 5501 5499 5498 5496 5495 5493 5491 5489 5488 5486 5485 5484 5483
5491 5492 5492 5494 5496 5496 5497 5498 5499 5500 5501 5502 5503 5503 5503 5503 5503 5503 5503 5503 5503 5502 5502 5501 5500 5500 5499 5498 5497 5496 5494 5493 5492 5490 5488 5487 5485 5483 5482 5480 5479 5477 5476 5475